Year,Month,Day,Hour,Minute,Value (Times are PST for temperature in C)
2007,07,12,00,00,20.10
2007,07,12,00,01,20.10
2007,07,12,00,02,20.00
2007,07,12,00,03,20.00
2007,07,12,00,04,19.90
2007,07,12,00,05,20.00
2007,07,12,00,06,20.00
2007,07,12,00,07,20.00
2007,07,12,00,08,19.90
2007,07,12,00,09,19.90
2007,07,12,00,10,19.80
2007,07,12,00,11,19.80
2007,07,12,00,12,19.80
2007,07,12,00,13,19.80
2007,07,12,00,14,19.70
2007,07,12,00,15,19.60
2007,07,12,00,16,19.60
2007,07,12,00,17,19.60
2007,07,12,00,18,19.60
2007,07,12,00,19,19.50
2007,07,12,00,20,19.50
2007,07,12,00,21,19.40
2007,07,12,00,22,19.40
2007,07,12,00,23,19.40
2007,07,12,00,24,19.40
2007,07,12,00,25,19.40
2007,07,12,00,26,19.40
2007,07,12,00,27,19.40
2007,07,12,00,28,19.30
2007,07,12,00,29,19.30
2007,07,12,00,30,19.30
2007,07,12,00,31,19.30
2007,07,12,00,32,19.20
2007,07,12,00,33,19.20
2007,07,12,00,34,19.20
2007,07,12,00,35,19.20
2007,07,12,00,36,19.10
2007,07,12,00,37,19.10
2007,07,12,00,38,19.00
2007,07,12,00,39,19.10
2007,07,12,00,40,19.10
2007,07,12,00,41,19.10
2007,07,12,00,42,19.00
2007,07,12,00,43,19.00
2007,07,12,00,44,19.00
2007,07,12,00,45,18.90
2007,07,12,00,46,18.90
2007,07,12,00,47,18.80
2007,07,12,00,48,18.80
2007,07,12,00,49,18.80
2007,07,12,00,50,18.80
2007,07,12,00,51,18.80
2007,07,12,00,52,18.90
2007,07,12,00,53,18.90
2007,07,12,00,54,18.90
2007,07,12,00,55,18.90
2007,07,12,00,56,18.80
2007,07,12,00,57,18.80
2007,07,12,00,58,18.70
2007,07,12,00,59,18.70
2007,07,12,01,00,18.70
2007,07,12,01,01,18.70
2007,07,12,01,02,18.70
2007,07,12,01,03,18.70
2007,07,12,01,04,18.70
2007,07,12,01,05,18.70
2007,07,12,01,06,18.70
2007,07,12,01,07,18.70
2007,07,12,01,08,18.70
2007,07,12,01,09,18.70
2007,07,12,01,10,18.70
2007,07,12,01,11,18.70
2007,07,12,01,12,18.70
2007,07,12,01,13,18.70
2007,07,12,01,14,18.70
2007,07,12,01,15,18.70
2007,07,12,01,16,18.70
2007,07,12,01,17,18.70
2007,07,12,01,18,18.70
2007,07,12,01,19,18.80
2007,07,12,01,20,18.80
2007,07,12,01,21,18.80
2007,07,12,01,22,18.80
2007,07,12,01,23,18.80
2007,07,12,01,24,18.80
2007,07,12,01,25,18.90
2007,07,12,01,26,18.80
2007,07,12,01,27,18.80
2007,07,12,01,28,18.80
2007,07,12,01,29,18.70
2007,07,12,01,30,18.70
2007,07,12,01,31,18.70
2007,07,12,01,32,18.60
2007,07,12,01,33,18.60
2007,07,12,01,34,18.60
2007,07,12,01,35,18.60
2007,07,12,01,36,18.50
2007,07,12,01,37,18.50
2007,07,12,01,38,18.60
2007,07,12,01,39,18.60
2007,07,12,01,40,18.60
2007,07,12,01,41,18.60
2007,07,12,01,42,18.60
2007,07,12,01,43,18.60
2007,07,12,01,44,18.60
2007,07,12,01,45,18.60
2007,07,12,01,46,18.50
2007,07,12,01,47,18.50
2007,07,12,01,48,18.40
2007,07,12,01,49,18.40
2007,07,12,01,50,18.40
2007,07,12,01,51,18.50
2007,07,12,01,52,18.50
2007,07,12,01,53,18.50
2007,07,12,01,54,18.50
2007,07,12,01,55,18.50
2007,07,12,01,56,18.50
2007,07,12,01,57,18.40
2007,07,12,01,58,18.40
2007,07,12,01,59,18.30
2007,07,12,02,00,18.30
2007,07,12,02,01,18.30
2007,07,12,02,02,18.30
2007,07,12,02,03,18.30
2007,07,12,02,04,18.30
2007,07,12,02,05,18.40
2007,07,12,02,06,18.40
2007,07,12,02,07,18.40
2007,07,12,02,08,18.40
2007,07,12,02,09,18.40
2007,07,12,02,10,18.40
2007,07,12,02,11,18.40
2007,07,12,02,12,18.30
2007,07,12,02,13,18.30
2007,07,12,02,14,18.30
2007,07,12,02,15,18.30
2007,07,12,02,16,18.20
2007,07,12,02,17,18.20
2007,07,12,02,18,18.20
2007,07,12,02,19,18.10
2007,07,12,02,20,18.10
2007,07,12,02,21,18.10
2007,07,12,02,22,18.10
2007,07,12,02,23,18.00
2007,07,12,02,24,17.90
2007,07,12,02,25,17.90
2007,07,12,02,26,17.90
2007,07,12,02,27,17.80
2007,07,12,02,28,17.80
2007,07,12,02,29,17.80
2007,07,12,02,30,17.80
2007,07,12,02,31,17.80
2007,07,12,02,32,17.70
2007,07,12,02,33,17.80
2007,07,12,02,34,17.70
2007,07,12,02,35,17.70
2007,07,12,02,36,17.70
2007,07,12,02,37,17.70
2007,07,12,02,38,17.70
2007,07,12,02,39,17.70
2007,07,12,02,40,17.70
2007,07,12,02,41,17.70
2007,07,12,02,42,17.70
2007,07,12,02,43,17.70
2007,07,12,02,44,17.60
2007,07,12,02,45,17.60
2007,07,12,02,46,17.60
2007,07,12,02,47,17.50
2007,07,12,02,48,17.50
2007,07,12,02,49,17.40
2007,07,12,02,50,17.40
2007,07,12,02,51,17.30
2007,07,12,02,52,17.30
2007,07,12,02,53,17.30
2007,07,12,02,54,17.20
2007,07,12,02,55,17.20
2007,07,12,02,56,17.20
2007,07,12,02,57,17.20
2007,07,12,02,58,17.10
2007,07,12,02,59,17.10
2007,07,12,03,00,17.10
2007,07,12,03,01,17.10
2007,07,12,03,02,17.10
2007,07,12,03,03,17.10
2007,07,12,03,04,17.10
2007,07,12,03,05,17.00
2007,07,12,03,06,17.00
2007,07,12,03,07,17.00
2007,07,12,03,08,17.00
2007,07,12,03,09,17.00
2007,07,12,03,10,17.00
2007,07,12,03,11,17.00
2007,07,12,03,12,17.00
2007,07,12,03,13,17.10
2007,07,12,03,14,17.10
2007,07,12,03,15,17.10
2007,07,12,03,16,17.10
2007,07,12,03,17,17.10
2007,07,12,03,18,17.00
2007,07,12,03,19,17.00
2007,07,12,03,20,16.90
2007,07,12,03,21,16.90
2007,07,12,03,22,16.90
2007,07,12,03,23,17.00
2007,07,12,03,24,17.00
2007,07,12,03,25,17.10
2007,07,12,03,26,17.10
2007,07,12,03,27,17.10
2007,07,12,03,28,17.20
2007,07,12,03,29,17.20
2007,07,12,03,30,17.20
2007,07,12,03,31,17.20
2007,07,12,03,32,17.20
2007,07,12,03,33,17.20
2007,07,12,03,34,17.30
2007,07,12,03,35,17.30
2007,07,12,03,36,17.30
2007,07,12,03,37,17.40
2007,07,12,03,38,17.40
2007,07,12,03,39,17.40
2007,07,12,03,40,17.40
2007,07,12,03,41,17.40
2007,07,12,03,42,17.40
2007,07,12,03,43,17.50
2007,07,12,03,44,17.50
2007,07,12,03,45,17.60
2007,07,12,03,46,17.70
2007,07,12,03,47,17.70
2007,07,12,03,48,17.90
2007,07,12,03,49,18.10
2007,07,12,03,50,18.20
2007,07,12,03,51,18.30
2007,07,12,03,52,18.40
2007,07,12,03,53,18.40
2007,07,12,03,54,18.40
2007,07,12,03,55,18.50
2007,07,12,03,56,18.50
2007,07,12,03,57,18.70
2007,07,12,03,58,18.90
2007,07,12,03,59,19.00
2007,07,12,04,00,19.20
2007,07,12,04,01,19.30
2007,07,12,04,02,19.50
2007,07,12,04,03,19.60
2007,07,12,04,04,19.70
2007,07,12,04,05,19.80
2007,07,12,04,06,19.80
2007,07,12,04,07,19.90
2007,07,12,04,08,19.90
2007,07,12,04,09,19.90
2007,07,12,04,10,19.80
2007,07,12,04,11,19.80
2007,07,12,04,12,19.80
2007,07,12,04,13,19.70
2007,07,12,04,14,19.60
2007,07,12,04,15,19.50
2007,07,12,04,16,19.40
2007,07,12,04,17,19.40
2007,07,12,04,18,19.30
2007,07,12,04,19,19.20
2007,07,12,04,20,19.10
2007,07,12,04,21,19.00
2007,07,12,04,22,18.90
2007,07,12,04,23,18.90
2007,07,12,04,24,18.80
2007,07,12,04,25,18.70
2007,07,12,04,26,18.60
2007,07,12,04,27,18.50
2007,07,12,04,28,18.50
2007,07,12,04,29,18.40
2007,07,12,04,30,18.30
2007,07,12,04,31,18.30
2007,07,12,04,32,18.20
2007,07,12,04,33,18.20
2007,07,12,04,34,18.10
2007,07,12,04,35,18.10
2007,07,12,04,36,18.00
2007,07,12,04,37,18.00
2007,07,12,04,38,17.90
2007,07,12,04,39,17.80
2007,07,12,04,40,17.80
2007,07,12,04,41,17.70
2007,07,12,04,42,17.60
2007,07,12,04,43,17.60
2007,07,12,04,44,17.50
2007,07,12,04,45,17.40
2007,07,12,04,46,17.30
2007,07,12,04,47,17.30
2007,07,12,04,48,17.20
2007,07,12,04,49,17.10
2007,07,12,04,50,17.00
2007,07,12,04,51,17.00
2007,07,12,04,52,16.90
2007,07,12,04,53,16.80
2007,07,12,04,54,16.80
2007,07,12,04,55,16.70
2007,07,12,04,56,16.70
2007,07,12,04,57,16.60
2007,07,12,04,58,16.60
2007,07,12,04,59,16.60
2007,07,12,05,00,16.50
2007,07,12,05,01,16.50
2007,07,12,05,02,16.40
2007,07,12,05,03,16.40
2007,07,12,05,04,16.40
2007,07,12,05,05,16.40
2007,07,12,05,06,16.40
2007,07,12,05,07,16.30
2007,07,12,05,08,16.30
2007,07,12,05,09,16.30
2007,07,12,05,10,16.30
2007,07,12,05,11,16.20
2007,07,12,05,12,16.20
2007,07,12,05,13,16.20
2007,07,12,05,14,16.20
2007,07,12,05,15,16.10
2007,07,12,05,16,16.10
2007,07,12,05,17,16.10
2007,07,12,05,18,16.10
2007,07,12,05,19,16.10
2007,07,12,05,20,16.10
2007,07,12,05,21,16.10
2007,07,12,05,22,16.10
2007,07,12,05,23,16.00
2007,07,12,05,24,16.00
2007,07,12,05,25,16.00
2007,07,12,05,26,16.00
2007,07,12,05,27,16.00
2007,07,12,05,28,16.00
2007,07,12,05,29,16.00
2007,07,12,05,30,16.00
2007,07,12,05,31,16.00
2007,07,12,05,32,16.00
2007,07,12,05,33,16.10
2007,07,12,05,34,16.10
2007,07,12,05,35,16.10
2007,07,12,05,36,16.20
2007,07,12,05,37,16.20
2007,07,12,05,38,16.20
2007,07,12,05,39,16.20
2007,07,12,05,40,16.20
2007,07,12,05,41,16.20
2007,07,12,05,42,16.20
2007,07,12,05,43,16.20
2007,07,12,05,44,16.20
2007,07,12,05,45,16.10
2007,07,12,05,46,16.10
2007,07,12,05,47,16.00
2007,07,12,05,48,16.00
2007,07,12,05,49,15.90
2007,07,12,05,50,15.90
2007,07,12,05,51,15.90
2007,07,12,05,52,15.90
2007,07,12,05,53,15.80
2007,07,12,05,54,15.80
2007,07,12,05,55,15.80
2007,07,12,05,56,15.80
2007,07,12,05,57,15.80
2007,07,12,05,58,15.80
2007,07,12,05,59,15.70
2007,07,12,06,00,15.70
2007,07,12,06,01,15.70
2007,07,12,06,02,15.70
2007,07,12,06,03,15.80
2007,07,12,06,04,15.70
2007,07,12,06,05,15.70
2007,07,12,06,06,15.70
2007,07,12,06,07,15.70
2007,07,12,06,08,15.70
2007,07,12,06,09,15.70
2007,07,12,06,10,15.70
2007,07,12,06,11,15.70
2007,07,12,06,12,15.70
2007,07,12,06,13,15.70
2007,07,12,06,14,15.70
2007,07,12,06,15,15.70
2007,07,12,06,16,15.70
2007,07,12,06,17,15.70
2007,07,12,06,18,15.70
2007,07,12,06,19,15.70
2007,07,12,06,20,15.70
2007,07,12,06,21,15.70
2007,07,12,06,22,15.70
2007,07,12,06,23,15.70
2007,07,12,06,24,15.70
2007,07,12,06,25,15.70
2007,07,12,06,26,15.70
2007,07,12,06,27,15.70
2007,07,12,06,28,15.70
2007,07,12,06,29,15.70
2007,07,12,06,30,15.70
2007,07,12,06,31,15.70
2007,07,12,06,32,15.70
2007,07,12,06,33,15.80
2007,07,12,06,34,15.80
2007,07,12,06,35,15.80
2007,07,12,06,36,15.80
2007,07,12,06,37,15.80
2007,07,12,06,38,15.90
2007,07,12,06,39,15.90
2007,07,12,06,40,15.90
2007,07,12,06,41,15.90
2007,07,12,06,42,15.90
2007,07,12,06,43,15.90
2007,07,12,06,44,15.80
2007,07,12,06,45,15.80
2007,07,12,06,46,15.80
2007,07,12,06,47,15.80
2007,07,12,06,48,15.80
2007,07,12,06,49,15.80
2007,07,12,06,50,15.80
2007,07,12,06,51,15.80
2007,07,12,06,52,15.80
2007,07,12,06,53,15.80
2007,07,12,06,54,15.80
2007,07,12,06,55,15.80
2007,07,12,06,56,15.80
2007,07,12,06,57,15.80
2007,07,12,06,58,15.80
2007,07,12,06,59,15.80
2007,07,12,07,00,15.80
2007,07,12,07,01,15.80
2007,07,12,07,02,15.90
2007,07,12,07,03,15.90
2007,07,12,07,04,15.90
2007,07,12,07,05,15.90
2007,07,12,07,06,16.00
2007,07,12,07,07,16.00
2007,07,12,07,08,16.00
2007,07,12,07,09,16.10
2007,07,12,07,10,16.10
2007,07,12,07,11,16.10
2007,07,12,07,12,16.20
2007,07,12,07,13,16.20
2007,07,12,07,14,16.30
2007,07,12,07,15,16.30
2007,07,12,07,16,16.30
2007,07,12,07,17,16.40
2007,07,12,07,18,16.40
2007,07,12,07,19,16.40
2007,07,12,07,20,16.50
2007,07,12,07,21,16.50
2007,07,12,07,22,16.60
2007,07,12,07,23,16.60
2007,07,12,07,24,16.60
2007,07,12,07,25,16.70
2007,07,12,07,26,16.70
2007,07,12,07,27,16.80
2007,07,12,07,28,16.80
2007,07,12,07,29,16.90
2007,07,12,07,30,16.90
2007,07,12,07,31,17.00
2007,07,12,07,32,17.00
2007,07,12,07,33,17.10
2007,07,12,07,34,17.10
2007,07,12,07,35,17.10
2007,07,12,07,36,17.20
2007,07,12,07,37,17.20
2007,07,12,07,38,17.20
2007,07,12,07,39,17.30
2007,07,12,07,40,17.30
2007,07,12,07,41,17.30
2007,07,12,07,42,17.40
2007,07,12,07,43,17.40
2007,07,12,07,44,17.40
2007,07,12,07,45,17.50
2007,07,12,07,46,17.60
2007,07,12,07,47,17.60
2007,07,12,07,48,17.60
2007,07,12,07,49,17.70
2007,07,12,07,50,17.70
2007,07,12,07,51,17.80
2007,07,12,07,52,17.80
2007,07,12,07,53,17.90
2007,07,12,07,54,17.90
2007,07,12,07,55,17.90
2007,07,12,07,56,17.90
2007,07,12,07,57,18.00
2007,07,12,07,58,18.00
2007,07,12,07,59,18.10
2007,07,12,08,00,18.10
2007,07,12,08,01,18.10
2007,07,12,08,02,18.20
2007,07,12,08,03,18.20
2007,07,12,08,04,18.20
2007,07,12,08,05,18.20
2007,07,12,08,06,18.20
2007,07,12,08,07,18.20
2007,07,12,08,08,18.30
2007,07,12,08,09,18.30
2007,07,12,08,10,18.30
2007,07,12,08,11,18.30
2007,07,12,08,12,18.30
2007,07,12,08,13,18.40
2007,07,12,08,14,18.50
2007,07,12,08,15,18.60
2007,07,12,08,16,18.70
2007,07,12,08,17,18.70
2007,07,12,08,18,18.80
2007,07,12,08,19,18.80
2007,07,12,08,20,18.90
2007,07,12,08,21,18.90
2007,07,12,08,22,19.00
2007,07,12,08,23,19.00
2007,07,12,08,24,19.10
2007,07,12,08,25,19.10
2007,07,12,08,26,19.10
2007,07,12,08,27,19.10
2007,07,12,08,28,19.10
2007,07,12,08,29,19.20
2007,07,12,08,30,19.20
2007,07,12,08,31,19.30
2007,07,12,08,32,19.30
2007,07,12,08,33,19.30
2007,07,12,08,34,19.30
2007,07,12,08,35,19.30
2007,07,12,08,36,19.30
2007,07,12,08,37,19.40
2007,07,12,08,38,19.40
2007,07,12,08,39,19.40
2007,07,12,08,40,19.40
2007,07,12,08,41,19.50
2007,07,12,08,42,19.50
2007,07,12,08,43,19.50
2007,07,12,08,44,19.50
2007,07,12,08,45,19.50
2007,07,12,08,46,19.60
2007,07,12,08,47,19.60
2007,07,12,08,48,19.60
2007,07,12,08,49,19.70
2007,07,12,08,50,19.70
2007,07,12,08,51,19.70
2007,07,12,08,52,19.70
2007,07,12,08,53,19.80
2007,07,12,08,54,19.80
2007,07,12,08,55,19.90
2007,07,12,08,56,19.80
2007,07,12,08,57,19.80
2007,07,12,08,58,19.80
2007,07,12,08,59,19.90
2007,07,12,09,00,19.90
2007,07,12,09,01,19.90
2007,07,12,09,02,19.90
2007,07,12,09,03,20.00
2007,07,12,09,04,20.00
2007,07,12,09,05,20.10
2007,07,12,09,06,20.10
2007,07,12,09,07,20.10
2007,07,12,09,08,20.10
2007,07,12,09,09,20.10
2007,07,12,09,10,20.10
2007,07,12,09,11,20.10
2007,07,12,09,12,20.10
2007,07,12,09,13,20.10
2007,07,12,09,14,20.20
2007,07,12,09,15,20.20
2007,07,12,09,16,20.40
2007,07,12,09,17,20.40
2007,07,12,09,18,20.50
2007,07,12,09,19,20.50
2007,07,12,09,20,20.50
2007,07,12,09,21,20.50
2007,07,12,09,22,20.60
2007,07,12,09,23,20.70
2007,07,12,09,24,20.80
2007,07,12,09,25,20.80
2007,07,12,09,26,20.80
2007,07,12,09,27,20.80
2007,07,12,09,28,20.80
2007,07,12,09,29,20.80
2007,07,12,09,30,20.70
2007,07,12,09,31,20.70
2007,07,12,09,32,20.70
2007,07,12,09,33,20.60
2007,07,12,09,34,20.60
2007,07,12,09,35,20.60
2007,07,12,09,36,20.60
2007,07,12,09,37,20.50
2007,07,12,09,38,20.60
2007,07,12,09,39,20.60
2007,07,12,09,40,20.60
2007,07,12,09,41,20.60
2007,07,12,09,42,20.60
2007,07,12,09,43,20.60
2007,07,12,09,44,20.60
2007,07,12,09,45,20.70
2007,07,12,09,46,20.60
2007,07,12,09,47,20.60
2007,07,12,09,48,20.60
2007,07,12,09,49,20.70
2007,07,12,09,50,20.80
2007,07,12,09,51,20.90
2007,07,12,09,52,21.00
2007,07,12,09,53,21.00
2007,07,12,09,54,21.10
2007,07,12,09,55,21.20
2007,07,12,09,56,21.20
2007,07,12,09,57,21.40
2007,07,12,09,58,21.40
2007,07,12,09,59,21.50
2007,07,12,10,00,21.50
2007,07,12,10,01,21.60
2007,07,12,10,02,21.70
2007,07,12,10,03,21.80
2007,07,12,10,04,21.90
2007,07,12,10,05,22.00
2007,07,12,10,06,22.10
2007,07,12,10,07,22.20
2007,07,12,10,08,22.30
2007,07,12,10,09,22.30
2007,07,12,10,10,22.30
2007,07,12,10,11,22.40
2007,07,12,10,12,22.40
2007,07,12,10,13,22.40
2007,07,12,10,14,22.50
2007,07,12,10,15,22.50
2007,07,12,10,16,22.50
2007,07,12,10,17,22.50
2007,07,12,10,18,22.50
2007,07,12,10,19,22.60
2007,07,12,10,20,22.70
2007,07,12,10,21,22.80
2007,07,12,10,22,22.90
2007,07,12,10,23,23.00
2007,07,12,10,24,23.00
2007,07,12,10,25,22.90
2007,07,12,10,26,22.80
2007,07,12,10,27,22.80
2007,07,12,10,28,22.70
2007,07,12,10,29,22.70
2007,07,12,10,30,22.80
2007,07,12,10,31,22.90
2007,07,12,10,32,23.00
2007,07,12,10,33,23.10
2007,07,12,10,34,23.20
2007,07,12,10,35,23.30
2007,07,12,10,36,23.20
2007,07,12,10,37,23.00
2007,07,12,10,38,23.00
2007,07,12,10,39,23.00
2007,07,12,10,40,23.00
2007,07,12,10,41,23.00
2007,07,12,10,42,22.90
2007,07,12,10,43,23.00
2007,07,12,10,44,23.00
2007,07,12,10,45,23.10
2007,07,12,10,46,23.20
2007,07,12,10,47,23.30
2007,07,12,10,48,23.40
2007,07,12,10,49,23.50
2007,07,12,10,50,23.60
2007,07,12,10,51,23.70
2007,07,12,10,52,23.80
2007,07,12,10,53,23.80
2007,07,12,10,54,23.80
2007,07,12,10,55,23.80
2007,07,12,10,56,23.90
2007,07,12,10,57,23.80
2007,07,12,10,58,23.80
2007,07,12,10,59,23.60
2007,07,12,11,00,23.60
2007,07,12,11,01,23.60
2007,07,12,11,02,23.60
2007,07,12,11,03,23.70
2007,07,12,11,04,23.80
2007,07,12,11,05,23.70
2007,07,12,11,06,23.70
2007,07,12,11,07,23.80
2007,07,12,11,08,23.80
2007,07,12,11,09,23.90
2007,07,12,11,10,24.00
2007,07,12,11,11,24.10
2007,07,12,11,12,24.20
2007,07,12,11,13,24.30
2007,07,12,11,14,24.40
2007,07,12,11,15,24.40
2007,07,12,11,16,24.50
2007,07,12,11,17,24.50
2007,07,12,11,18,24.50
2007,07,12,11,19,24.40
2007,07,12,11,20,24.40
2007,07,12,11,21,24.40
2007,07,12,11,22,24.40
2007,07,12,11,23,24.40
2007,07,12,11,24,24.50
2007,07,12,11,25,24.60
2007,07,12,11,26,24.50
2007,07,12,11,27,24.40
2007,07,12,11,28,24.30
2007,07,12,11,29,24.30
2007,07,12,11,30,24.00
2007,07,12,11,31,23.70
2007,07,12,11,32,23.50
2007,07,12,11,33,23.40
2007,07,12,11,34,23.30
2007,07,12,11,35,23.30
2007,07,12,11,36,23.30
2007,07,12,11,37,23.20
2007,07,12,11,38,23.20
2007,07,12,11,39,23.10
2007,07,12,11,40,23.20
2007,07,12,11,41,23.30
2007,07,12,11,42,23.30
2007,07,12,11,43,23.30
2007,07,12,11,44,23.40
2007,07,12,11,45,23.50
2007,07,12,11,46,23.60
2007,07,12,11,47,23.70
2007,07,12,11,48,23.80
2007,07,12,11,49,23.80
2007,07,12,11,50,23.90
2007,07,12,11,51,24.10
2007,07,12,11,52,24.20
2007,07,12,11,53,24.40
2007,07,12,11,54,24.60
2007,07,12,11,55,24.80
2007,07,12,11,56,24.80
2007,07,12,11,57,24.90
2007,07,12,11,58,24.90
2007,07,12,11,59,24.90
2007,07,12,12,00,24.90
2007,07,12,12,01,24.90
2007,07,12,12,02,24.90
2007,07,12,12,03,24.90
2007,07,12,12,04,24.80
2007,07,12,12,05,24.80
2007,07,12,12,06,24.70
2007,07,12,12,07,24.70
2007,07,12,12,08,24.70
2007,07,12,12,09,24.60
2007,07,12,12,10,24.60
2007,07,12,12,11,24.60
2007,07,12,12,12,24.70
2007,07,12,12,13,24.70
2007,07,12,12,14,24.70
2007,07,12,12,15,24.80
2007,07,12,12,16,24.80
2007,07,12,12,17,24.90
2007,07,12,12,18,24.90
2007,07,12,12,19,25.00
2007,07,12,12,20,24.90
2007,07,12,12,21,24.90
2007,07,12,12,22,24.90
2007,07,12,12,23,24.90
2007,07,12,12,24,24.80
2007,07,12,12,25,24.70
2007,07,12,12,26,24.70
2007,07,12,12,27,24.80
2007,07,12,12,28,24.70
2007,07,12,12,29,24.70
2007,07,12,12,30,24.70
2007,07,12,12,31,24.70
2007,07,12,12,32,24.70
2007,07,12,12,33,24.80
2007,07,12,12,34,24.90
2007,07,12,12,35,25.00
2007,07,12,12,36,25.00
2007,07,12,12,37,25.20
2007,07,12,12,38,25.30
2007,07,12,12,39,25.40
2007,07,12,12,40,25.40
2007,07,12,12,41,25.40
2007,07,12,12,42,25.40
2007,07,12,12,43,25.30
2007,07,12,12,44,25.30
2007,07,12,12,45,25.30
2007,07,12,12,46,25.40
2007,07,12,12,47,25.60
2007,07,12,12,48,25.50
2007,07,12,12,49,25.50
2007,07,12,12,50,25.40
2007,07,12,12,51,25.40
2007,07,12,12,52,25.40
2007,07,12,12,53,25.30
2007,07,12,12,54,25.30
2007,07,12,12,55,25.20
2007,07,12,12,56,25.10
2007,07,12,12,57,25.10
2007,07,12,12,58,25.10
2007,07,12,12,59,25.10
2007,07,12,13,00,25.10
2007,07,12,13,01,25.20
2007,07,12,13,02,25.20
2007,07,12,13,03,25.30
2007,07,12,13,04,25.30
2007,07,12,13,05,25.30
2007,07,12,13,06,25.40
2007,07,12,13,07,25.30
2007,07,12,13,08,25.30
2007,07,12,13,09,25.10
2007,07,12,13,10,24.90
2007,07,12,13,11,24.80
2007,07,12,13,12,24.70
2007,07,12,13,13,24.70
2007,07,12,13,14,24.60
2007,07,12,13,15,24.60
2007,07,12,13,16,24.50
2007,07,12,13,17,24.50
2007,07,12,13,18,24.50
2007,07,12,13,19,24.40
2007,07,12,13,20,24.40
2007,07,12,13,21,24.40
2007,07,12,13,22,24.30
2007,07,12,13,23,24.30
2007,07,12,13,24,24.30
2007,07,12,13,25,24.30
2007,07,12,13,26,24.20
2007,07,12,13,27,24.20
2007,07,12,13,28,24.10
2007,07,12,13,29,24.10
2007,07,12,13,30,24.10
2007,07,12,13,31,24.00
2007,07,12,13,32,24.00
2007,07,12,13,33,24.00
2007,07,12,13,34,24.00
2007,07,12,13,35,24.10
2007,07,12,13,36,24.10
2007,07,12,13,37,24.10
2007,07,12,13,38,24.10
2007,07,12,13,39,24.20
2007,07,12,13,40,24.20
2007,07,12,13,41,24.30
2007,07,12,13,42,24.30
2007,07,12,13,43,24.40
2007,07,12,13,44,24.40
2007,07,12,13,45,24.50
2007,07,12,13,46,24.60
2007,07,12,13,47,24.60
2007,07,12,13,48,24.70
2007,07,12,13,49,24.70
2007,07,12,13,50,24.70
2007,07,12,13,51,24.70
2007,07,12,13,52,24.60
2007,07,12,13,53,24.40
2007,07,12,13,54,24.20
2007,07,12,13,55,24.00
2007,07,12,13,56,23.90
2007,07,12,13,57,23.70
2007,07,12,13,58,23.50
2007,07,12,13,59,23.30
2007,07,12,14,00,23.30
2007,07,12,14,01,23.20
2007,07,12,14,02,23.10
2007,07,12,14,03,23.10
2007,07,12,14,04,23.00
2007,07,12,14,05,22.90
2007,07,12,14,06,22.90
2007,07,12,14,07,22.90
2007,07,12,14,08,23.00
2007,07,12,14,09,23.00
2007,07,12,14,10,23.10
2007,07,12,14,11,23.10
2007,07,12,14,12,23.20
2007,07,12,14,13,23.20
2007,07,12,14,14,23.20
2007,07,12,14,15,23.20
2007,07,12,14,16,23.20
2007,07,12,14,17,23.30
2007,07,12,14,18,23.30
2007,07,12,14,19,23.40
2007,07,12,14,20,23.60
2007,07,12,14,21,23.80
2007,07,12,14,22,23.90
2007,07,12,14,23,24.00
2007,07,12,14,24,24.10
2007,07,12,14,25,24.30
2007,07,12,14,26,24.50
2007,07,12,14,27,24.60
2007,07,12,14,28,24.70
2007,07,12,14,29,24.80
2007,07,12,14,30,24.90
2007,07,12,14,31,25.00
2007,07,12,14,32,25.10
2007,07,12,14,33,25.20
2007,07,12,14,34,25.20
2007,07,12,14,35,25.20
2007,07,12,14,36,25.20
2007,07,12,14,37,25.20
2007,07,12,14,38,25.20
2007,07,12,14,39,25.20
2007,07,12,14,40,25.20
2007,07,12,14,41,25.10
2007,07,12,14,42,25.00
2007,07,12,14,43,24.90
2007,07,12,14,44,24.70
2007,07,12,14,45,24.50
2007,07,12,14,46,24.30
2007,07,12,14,47,24.10
2007,07,12,14,48,24.00
2007,07,12,14,49,23.90
2007,07,12,14,50,23.90
2007,07,12,14,51,23.90
2007,07,12,14,52,23.90
2007,07,12,14,53,23.90
2007,07,12,14,54,23.90
2007,07,12,14,55,24.00
2007,07,12,14,56,24.00
2007,07,12,14,57,24.00
2007,07,12,14,58,24.00
2007,07,12,14,59,24.00
2007,07,12,15,00,23.90
2007,07,12,15,01,23.90
2007,07,12,15,02,23.80
2007,07,12,15,03,23.80
2007,07,12,15,04,23.80
2007,07,12,15,05,23.80
2007,07,12,15,06,23.80
2007,07,12,15,07,23.70
2007,07,12,15,08,23.60
2007,07,12,15,09,23.60
2007,07,12,15,10,23.50
2007,07,12,15,11,23.40
2007,07,12,15,12,23.40
2007,07,12,15,13,23.20
2007,07,12,15,14,23.10
2007,07,12,15,15,23.00
2007,07,12,15,16,22.90
2007,07,12,15,17,22.80
2007,07,12,15,18,22.70
2007,07,12,15,19,22.60
2007,07,12,15,20,22.50
2007,07,12,15,21,22.40
2007,07,12,15,22,22.30
2007,07,12,15,23,22.20
2007,07,12,15,24,22.10
2007,07,12,15,25,22.00
2007,07,12,15,26,21.90
2007,07,12,15,27,21.80
2007,07,12,15,28,21.80
2007,07,12,15,29,21.80
2007,07,12,15,30,21.70
2007,07,12,15,31,21.70
2007,07,12,15,32,21.60
2007,07,12,15,33,21.60
2007,07,12,15,34,21.60
2007,07,12,15,35,21.60
2007,07,12,15,36,21.60
2007,07,12,15,37,21.60
2007,07,12,15,38,21.60
2007,07,12,15,39,21.60
2007,07,12,15,40,21.60
2007,07,12,15,41,21.60
2007,07,12,15,42,21.70
2007,07,12,15,43,21.70
2007,07,12,15,44,21.70
2007,07,12,15,45,21.70
2007,07,12,15,46,21.70
2007,07,12,15,47,21.70
2007,07,12,15,48,21.70
2007,07,12,15,49,21.70
2007,07,12,15,50,21.70
2007,07,12,15,51,21.70
2007,07,12,15,52,21.70
2007,07,12,15,53,21.80
2007,07,12,15,54,21.80
2007,07,12,15,55,21.80
2007,07,12,15,56,21.80
2007,07,12,15,57,21.80
2007,07,12,15,58,21.80
2007,07,12,15,59,21.80
2007,07,12,16,00,21.80
2007,07,12,16,01,21.80
2007,07,12,16,02,21.80
2007,07,12,16,03,21.80
2007,07,12,16,04,21.80
2007,07,12,16,05,21.70
2007,07,12,16,06,21.70
2007,07,12,16,07,21.70
2007,07,12,16,08,21.70
2007,07,12,16,09,21.70
2007,07,12,16,10,21.60
2007,07,12,16,11,21.60
2007,07,12,16,12,21.60
2007,07,12,16,13,21.60
2007,07,12,16,14,21.60
2007,07,12,16,15,21.60
2007,07,12,16,16,21.60
2007,07,12,16,17,21.60
2007,07,12,16,18,21.50
2007,07,12,16,19,21.50
2007,07,12,16,20,21.50
2007,07,12,16,21,21.60
2007,07,12,16,22,21.60
2007,07,12,16,23,21.60
2007,07,12,16,24,21.60
2007,07,12,16,25,21.60
2007,07,12,16,26,21.70
2007,07,12,16,27,21.70
2007,07,12,16,28,21.70
2007,07,12,16,29,21.70
2007,07,12,16,30,21.80
2007,07,12,16,31,21.80
2007,07,12,16,32,21.80
2007,07,12,16,33,21.80
2007,07,12,16,34,21.90
2007,07,12,16,35,21.90
2007,07,12,16,36,22.00
2007,07,12,16,37,22.00
2007,07,12,16,38,22.10
2007,07,12,16,39,22.20
2007,07,12,16,40,22.20
2007,07,12,16,41,22.20
2007,07,12,16,42,22.30
2007,07,12,16,43,22.30
2007,07,12,16,44,22.30
2007,07,12,16,45,22.40
2007,07,12,16,46,22.40
2007,07,12,16,47,22.50
2007,07,12,16,48,22.50
2007,07,12,16,49,22.60
2007,07,12,16,50,22.60
2007,07,12,16,51,22.70
2007,07,12,16,52,22.80
2007,07,12,16,53,22.80
2007,07,12,16,54,22.80
2007,07,12,16,55,22.90
2007,07,12,16,56,22.90
2007,07,12,16,57,22.90
2007,07,12,16,58,23.00
2007,07,12,16,59,23.00
2007,07,12,17,00,23.10
2007,07,12,17,01,23.20
2007,07,12,17,02,23.20
2007,07,12,17,03,23.20
2007,07,12,17,04,23.30
2007,07,12,17,05,23.30
2007,07,12,17,06,23.40
2007,07,12,17,07,23.40
2007,07,12,17,08,23.40
2007,07,12,17,09,23.40
2007,07,12,17,10,23.30
2007,07,12,17,11,23.20
2007,07,12,17,12,23.10
2007,07,12,17,13,23.00
2007,07,12,17,14,22.90
2007,07,12,17,15,22.80
2007,07,12,17,16,22.80
2007,07,12,17,17,22.70
2007,07,12,17,18,22.70
2007,07,12,17,19,22.60